sat.trackr.live / text

‹ back to catalog

ASNARO-2

NORAD 43152 · 2018-007A

PAYLOAD ACTIVE UNKNOWN

§ Identity

Operator
Country
JPN
Launch date
2018-01-17
Launch site
KSCUT
Launch vehicle
Mass (kg)
RCS (m²)

External: N2YO · Heavens-Above · Gunter

§ Orbital elements

Epoch: 2026-09-20T05:28:19.123104Z

Period
94.59 min
Inclination
97.4007°
Eccentricity
0.0001936
Mean motion
15.22401612 rev/d
Perigee alt
497.3 km
Apogee alt
499.9 km
Semi-major
6,876.7 km
B*
2.1915e-4
RAAN
268.6813°
Arg perigee
83.6209°
Mean anomaly
276.5248°
Rev number
48,187

§ Raw data

ASNARO-21 43152U 18007A   26263.22799911  .00004994  00000+0  21915-3 0  99962 43152  97.4007 268.6813 0001936  83.6209 276.5248 15.22401612481871

JSON: /api/v1/satellites/43152 · /tle

For live sub-satellite position, see the globe view (requires WebGL).

§ Visibility from observer

Set your observer location to see the next 7 days of passes ≥ 10°. The values pass through the URL so the page stays shareable.

No JS? Fill the form by hand. The geolocation button needs JavaScript.

§ Radio — SatNOGS DB

ModeDescriptionDownlinkUplink
FM S-band telemetry 2.272 GHz

1 transmitter · refreshed weekly from db.satnogs.org